[[{"header":{"parameterUnit":"m.s-1","parameterCategory":1,"la1":30.2991,"la2":30.254,"lo1":-89.0895,"lo2":-89.0444,"dy":0.0017,"dx":0.0017,"nx":28,"ny":28,"refTime":"2025-04-21T21:00:00:Z","depth":0,"parameterNumber":2,"parameterNumberName":"U-component_of_WINDS"},"data":[0,0,0,0,0,0,0,0,0,0,0,0,0,0,0,0,0,0,0,0,0,0,0,0,0,0,0,0,0,0,0,0,0,0,0,0,0,0,0,0,0,0,0,0,0,0,0,0,0,0,0,0,0,0,0,0,0,0,-3.3631,-3.3633,0,-3.3804,-3.3806,-3.3808,-3.3849,-3.3848,-3.3847,-3.3846,-3.4023,-3.4028,-3.4034,0,0,0,0,0,0,0,0,0,0,0,0,0,-3.3338,-3.3343,-3.3631,-3.3633,-3.3635,-3.3804,-3.3806,-3.3808,-3.3849,-3.3848,-3.3846,-3.3845,-3.4021,-3.4028,-3.4034,0,0,0,0,0,0,0,0,0,0,0,0,0,-3.3483,-3.3345,-3.363,-3.3676,-3.3682,-3.3803,-3.3806,-3.3809,-3.3849,-3.3848,-3.3846,-3.3844,-3.4018,-3.4027,-3.4035,-3.4124,0,0,-3.4062,-3.4066,0,0,0,0,0,0,0,0,-3.3475,-3.3494,-3.3667,-3.3673,-3.368,-3.3803,-3.3768,-3.3915,-3.385,-3.3786,-3.3846,-3.3843,-3.3951,-3.3965,-3.4001,-3.4132,-3.414,-3.4063,-3.4068,-3.4072,-3.4074,0,0,0,0,0,0,0,-3.3465,-3.3487,-3.3699,-3.3669,-3.3677,-3.3688,-3.3707,-3.3796,-3.3876,-3.3791,-3.3795,-3.3815,-3.3954,-3.3993,-3.4006,-3.4142,-3.4063,-3.407,-3.4076,-3.4079,-3.4357,-3.4359,0,0,0,0,0,0,-3.3447,-3.3478,-3.3694,-3.3704,-3.3571,-3.3695,-3.3716,-3.3765,-3.3875,-3.389,-3.3816,-3.3816,-3.3979,-3.3996,-3.4012,-3.4123,-3.4072,-3.408,-3.4085,-3.4355,-3.4357,-3.436,0,0,0,0,0,0,-3.344,-3.3466,-3.3687,-3.3592,-3.3621,-3.3702,-3.3757,-3.3769,-3.3808,-3.3894,-3.3908,-3.384,-3.3978,-3.4,-3.4096,-3.413,-3.4084,-3.4092,-3.4352,-3.4356,-3.4359,-3.4346,0,0,0,0,0,0,-3.3432,-3.3463,-3.3496,-3.3593,-3.3626,-3.3767,-3.3759,-3.3774,-3.3823,-3.3825,-3.3921,-3.3935,-3.3978,-3.4083,-3.4105,-3.4141,-3.4098,-3.4349,-3.4354,-3.4358,-3.4344,-3.4348,-3.4353,0,0,0,0,0,-3.3421,-3.3486,-3.3498,-3.3524,-3.367,-3.3769,-3.3788,-3.3837,-3.3826,-3.3861,-3.3916,-3.3932,-3.4124,-3.4093,-3.4118,-3.4157,-3.4348,-3.4353,-3.4357,-3.4342,-3.4348,-3.4352,0,0,0,0,0,0,-3.339,-3.3499,-3.3514,-3.3611,-3.3681,-3.3776,-3.3821,-3.3841,-3.3915,-3.3913,-3.3971,-3.3992,-3.4085,-3.4131,-3.4095,-3.425,-3.4236,-3.4246,-3.4215,-3.4221,-3.4226,-3.4211,-3.4106,0,0,0,0,0,-3.3395,-3.3466,-3.3558,-3.3635,-3.3669,-3.3739,-3.3784,-3.3816,-3.389,-3.3919,-3.3982,-3.4053,-3.413,-3.4179,-3.4254,-3.4352,-3.4374,-3.4392,-3.4396,-3.4399,-3.4406,-3.4463,-3.4472,-3.4376,-3.4376,-3.4376,0,0,-3.3405,-3.3474,-3.3514,-3.3631,-3.3688,-3.3761,-3.3763,-3.384,-3.3894,-3.3931,-3.4025,-3.4074,-3.4158,-3.4256,-3.4302,-3.4297,-3.4439,-3.4406,-3.4407,-3.4413,-3.4469,-3.4478,-3.4486,-3.4379,-3.4379,-3.4378,0,0,-3.346,-3.3519,-3.359,-3.3649,-3.3736,-3.3783,-3.38,-3.3893,-3.3927,-3.4023,-3.4053,-3.412,-3.425,-3.4309,-3.4356,-3.4438,-3.4455,-3.4461,-3.4482,-3.4537,-3.4544,-3.4551,-3.458,-3.4589,-3.4468,-3.4468,-3.4468,0,-3.3461,-3.3571,-3.3624,-3.37,-3.3751,-3.3789,-3.3862,-3.3916,-3.4024,-3.4058,-3.4052,-3.4218,-3.4277,-3.4389,-3.4409,-3.4447,-3.4468,-3.4448,-3.4539,-3.4547,-3.4554,-3.4582,-3.4592,-3.4468,-3.4468,-3.4468,-3.4468,0,-3.3569,-3.3645,-3.3693,-3.3796,-3.3852,-3.3926,-3.3991,-3.4042,-3.4071,-3.4119,-3.4217,-3.429,-3.4381,-3.4411,-3.4439,-3.4529,-3.4523,-3.4527,-3.4514,-3.4562,-3.4589,-3.46,-3.4468,-3.4468,-3.4468,-3.4468,0,0,-3.3605,-3.3739,-3.3756,-3.3804,-3.3905,-3.3965,-3.4043,-3.4132,-3.4175,-3.4249,-3.4315,-3.4427,-3.4432,-3.4485,-3.4521,-3.4569,-3.4629,-3.4568,-3.4571,-3.4575,-3.4733,-3.4727,-3.4738,-3.4643,-3.4645,-3.4647,-3.4725,0,-3.3671,-3.3809,-3.3861,-3.3974,-3.4045,-3.4085,-3.4152,-3.4222,-3.427,-3.4339,-3.4392,-3.447,-3.4471,-3.4504,-3.4554,-3.4611,-3.4661,-3.4607,-3.4704,-3.4707,-3.4679,-3.4753,-3.4747,-3.4816,-3.4736,-3.4738,-3.4739,0,-3.3766,-3.3842,-3.3962,-3.4056,-3.4088,-3.4147,-3.4235,-3.43,-3.4381,-3.4413,-3.4475,-3.4508,-3.4591,-3.4575,-3.4691,-3.4653,-3.4697,-3.4732,-3.4736,-3.4745,-3.4724,-3.4762,-3.484,-3.485,-3.4757,-3.4755,-3.4754,0,-3.3779,-3.3912,-3.4001,-3.4041,-3.4154,-3.4194,-3.4243,-3.4323,-3.4374,-3.4452,-3.4486,-3.4572,-3.4618,-3.4685,-3.4741,-3.4724,-3.4852,-3.4841,-3.488,-3.4879,-3.4903,-3.49,-3.4987,-3.4935,-3.4935,-3.4934,-3.4934,0,-3.3846,-3.3918,-3.4008,-3.4063,-3.4145,-3.4206,-3.4286,-3.4337,-3.4408,-3.4474,-3.4515,-3.4576,-3.4648,-3.4719,-3.4764,-3.4854,-3.4875,-3.4903,-3.4913,-3.4898,-3.4894,-3.4925,-3.4921,-3.4937,-3.4937,-3.4936,-3.4936,0,-3.3873,-3.3937,-3.4036,-3.4136,-3.4163,-3.4219,-3.4304,-3.436,-3.4411,-3.4494,-3.4518,-3.4598,-3.4684,-3.4748,-3.4859,-3.489,-3.4985,-3.4997,-3.4957,-3.4962,-3.4998,-3.4993,-3.5106,-3.5124,-3.5061,-3.5061,-3.5062,0,-3.391,-3.3966,-3.4073,-3.412,-3.4169,-3.4244,-3.4298,-3.4361,-3.4414,-3.4513,-3.4557,-3.4646,-3.472,-3.4856,-3.4925,-3.5011,-3.5024,-3.5058,-3.5037,-3.502,-3.5023,-3.5018,-3.5024,-3.506,-3.506,-3.506,-3.5061,0,-3.397,-3.3999,-3.4074,-3.4161,-3.4223,-3.4295,-3.4367,-3.4404,-3.448,-3.4539,-3.4627,-3.4685,-3.48,-3.4888,-3.4982,-3.5033,-3.506,-3.5067,-3.5081,-3.5064,-3.5038,-3.5052,-3.4963,-3.5064,-3.5063,-3.5063,-3.5063,-3.5063,-3.4002,-3.4054,-3.4137,-3.422,-3.4282,-3.4349,-3.4406,-3.4465,-3.454,-3.4638,-3.4672,-3.4764,-3.4847,-3.4975,-3.5028,-3.5101,-3.5101,-3.512,-3.5125,-3.5128,-3.5127,-3.5029,-3.5119,-3.5119,-3.5119,-3.5119,-3.5119,0,-3.4062,-3.4119,-3.4194,-3.4294,-3.436,-3.4381,-3.4463,-3.4517,-3.4597,-3.4672,-3.4745,-3.4848,-3.4935,-3.5012,-3.5102,-3.5146,-3.5161,-3.5167,-3.5163,-3.5175,-3.5122,-3.5101,-3.5154,-3.5154,-3.5154,-3.5154,-3.5154,-3.5154,-3.4101,-3.4191,-3.4231,-3.4352,-3.4409,-3.4498,-3.4543,-3.4606,-3.4667,-3.478,-3.4852,-3.4902,-3.4979,-3.5075,-3.5156,-3.5177,-3.5208,-3.5211,-3.5234,-3.5183,-3.5179,-3.5174,-3.5154,-3.5218,-3.5218,-3.5281,-3.5281,-3.5282]},{"header":{"parameterUnit":"m.s-1","parameterCategory":1,"la1":30.2991,"la2":30.254,"lo1":-89.0895,"lo2":-89.0444,"dy":0.0017,"dx":0.0017,"nx":28,"ny":28,"refTime":"2025-04-21T21:00:00:Z","depth":0,"parameterNumber":3,"parameterNumberName":"V-component_of_WINDS"},"data":[0,0,0,0,0,0,0,0,0,0,0,0,0,0,0,0,0,0,0,0,0,0,0,0,0,0,0,0,0,0,0,0,0,0,0,0,0,0,0,0,0,0,0,0,0,0,0,0,0,0,0,0,0,0,0,0,0,0,5.0706,5.0707,0,5.0854,5.0855,5.0857,5.0862,5.0861,5.0859,5.0857,5.1007,5.1012,5.1018,0,0,0,0,0,0,0,0,0,0,0,0,0,5.0428,5.0433,5.0705,5.0707,5.0709,5.0853,5.0855,5.0858,5.0863,5.086,5.0858,5.0856,5.1005,5.1011,5.1018,0,0,0,0,0,0,0,0,0,0,0,0,0,5.056,5.0435,5.0705,5.0729,5.0733,5.0853,5.0856,5.0858,5.0863,5.086,5.0858,5.0855,5.1003,5.1011,5.1019,5.1125,0,0,5.1045,5.1049,0,0,0,0,0,0,0,0,5.0552,5.057,5.0724,5.0728,5.0732,5.0837,5.0813,5.0947,5.0864,5.0814,5.0857,5.0854,5.0952,5.0965,5.0998,5.1132,5.1138,5.1046,5.1051,5.1054,5.1057,0,0,0,0,0,0,0,5.0543,5.0564,5.0764,5.0726,5.0731,5.0733,5.0749,5.0838,5.0896,5.0818,5.0818,5.0836,5.0954,5.099,5.1002,5.114,5.1045,5.1053,5.1058,5.1062,5.1372,5.1375,0,0,0,0,0,0,5.0529,5.0556,5.0759,5.0768,5.0634,5.074,5.0758,5.0806,5.0895,5.0906,5.0838,5.0836,5.0977,5.0992,5.1007,5.1139,5.1054,5.1062,5.1067,5.1369,5.1373,5.1377,0,0,0,0,0,0,5.0523,5.0547,5.0753,5.0663,5.0689,5.0748,5.0802,5.081,5.0846,5.091,5.0921,5.0864,5.0975,5.0995,5.1097,5.1144,5.1066,5.1074,5.1366,5.137,5.1375,5.1403,0,0,0,0,0,0,5.0515,5.0545,5.0585,5.0663,5.0694,5.084,5.0805,5.0815,5.0861,5.0859,5.0938,5.0948,5.0975,5.1084,5.1105,5.1155,5.108,5.1361,5.1368,5.1373,5.1398,5.1408,5.1417,0,0,0,0,0,5.0505,5.0586,5.0587,5.0612,5.0745,5.0843,5.086,5.089,5.0865,5.0906,5.0948,5.0946,5.1136,5.1094,5.1118,5.1171,5.1359,5.1366,5.1373,5.1394,5.1406,5.1416,0,0,0,0,0,0,5.051,5.0596,5.0599,5.0707,5.0768,5.0843,5.0896,5.0901,5.0969,5.0965,5.0998,5.1016,5.1117,5.1154,5.1106,5.128,5.1244,5.1257,5.1252,5.1264,5.1273,5.1262,5.1087,0,0,0,0,0,5.0524,5.0596,5.0667,5.0756,5.0787,5.0837,5.088,5.0898,5.0962,5.0987,5.1036,5.1098,5.1173,5.122,5.1292,5.1404,5.1422,5.1452,5.1461,5.1469,5.1479,5.1544,5.1559,5.14,5.14,5.14,0,0,5.0553,5.0609,5.0652,5.0759,5.0808,5.0883,5.0858,5.0937,5.0993,5.0999,5.1099,5.1137,5.1209,5.1317,5.1367,5.1351,5.1527,5.1478,5.1483,5.149,5.1553,5.1568,5.1581,5.1405,5.1404,5.1403,0,0,5.0644,5.0693,5.0773,5.0824,5.09,5.0933,5.0953,5.1029,5.1056,5.1157,5.1164,5.1231,5.1357,5.1409,5.1452,5.1568,5.1569,5.159,5.1639,5.1702,5.1715,5.1726,5.1769,5.1784,5.16,5.16,5.16,0,5.067,5.0783,5.0814,5.0895,5.0943,5.0954,5.1037,5.1084,5.1179,5.1212,5.1193,5.1355,5.1403,5.1525,5.1554,5.1588,5.1613,5.1581,5.171,5.1722,5.1733,5.1775,5.1791,5.1602,5.1602,5.1602,5.1602,0,5.0812,5.0891,5.0947,5.1041,5.1095,5.1176,5.1221,5.1273,5.1287,5.1323,5.1427,5.1487,5.1572,5.1602,5.1616,5.1728,5.1716,5.1703,5.1668,5.175,5.179,5.1806,5.1606,5.1605,5.1604,5.1604,0,0,5.0908,5.1021,5.1041,5.1085,5.1172,5.1233,5.1317,5.1402,5.1446,5.1512,5.1584,5.1693,5.1683,5.1732,5.1752,5.1807,5.1899,5.1788,5.1791,5.1808,5.2028,5.2038,5.2056,5.19,5.1903,5.1906,5.2023,0,5.1009,5.1158,5.1191,5.1319,5.1394,5.1408,5.1481,5.1542,5.1579,5.1648,5.1688,5.1766,5.1745,5.1776,5.1831,5.1876,5.1943,5.1867,5.1968,5.1971,5.195,5.2076,5.2086,5.2194,5.2039,5.2041,5.2043,0,5.1147,5.1219,5.1355,5.1436,5.1468,5.1533,5.1616,5.1682,5.1753,5.1776,5.1833,5.1848,5.1937,5.1898,5.2021,5.1969,5.2013,5.2041,5.2046,5.2057,5.2012,5.2092,5.2228,5.2245,5.2068,5.2066,5.2064,0,5.1206,5.1336,5.1436,5.1473,5.1569,5.1615,5.1656,5.1725,5.1776,5.1848,5.1882,5.1963,5.2007,5.207,5.2108,5.2076,5.223,5.2193,5.2252,5.2252,5.2284,5.2281,5.243,5.231,5.231,5.231,5.2309,0,5.1316,5.14,5.1464,5.1525,5.162,5.1658,5.1751,5.1793,5.1855,5.1925,5.1941,5.2007,5.2053,5.2125,5.2155,5.2255,5.2274,5.2296,5.2303,5.2295,5.2293,5.2324,5.2318,5.2314,5.2313,5.2312,5.2311,0,5.1397,5.1444,5.1554,5.1636,5.1659,5.1726,5.1797,5.1858,5.1896,5.1986,5.2009,5.2069,5.2156,5.22,5.2307,5.2327,5.244,5.2442,5.2416,5.242,5.2477,5.2472,5.2652,5.2679,5.2539,5.2541,5.2542,0,5.1465,5.153,5.1621,5.1671,5.1714,5.1792,5.1845,5.1886,5.194,5.2028,5.2079,5.2167,5.224,5.2378,5.2431,5.2515,5.2519,5.2577,5.2532,5.2523,5.2523,5.2519,5.2527,5.2585,5.2586,5.2587,5.2588,0,5.1582,5.1603,5.1678,5.1763,5.1826,5.1894,5.1961,5.2,5.2052,5.2113,5.2203,5.226,5.2371,5.2459,5.2547,5.2591,5.2599,5.2603,5.2621,5.2614,5.2597,5.2609,5.244,5.2598,5.2597,5.2596,5.2596,5.2595,5.166,5.172,5.1794,5.1879,5.1934,5.1998,5.206,5.2108,5.2184,5.2279,5.2298,5.2395,5.2467,5.2587,5.2634,5.271,5.2698,5.2724,5.273,5.2737,5.2741,5.2585,5.2726,5.2726,5.2725,5.2725,5.2725,0,5.1779,5.1828,5.1906,5.2001,5.2068,5.2072,5.2148,5.2204,5.2288,5.2356,5.2429,5.2534,5.262,5.2682,5.277,5.282,5.2826,5.2842,5.2839,5.2849,5.2745,5.2722,5.2835,5.2835,5.2835,5.2835,5.2835,5.2835,5.1849,5.1951,5.1981,5.2113,5.2162,5.2257,5.2301,5.236,5.2415,5.2532,5.2605,5.2645,5.2711,5.2805,5.2886,5.2902,5.2934,5.295,5.2966,5.2868,5.2856,5.2845,5.2823,5.2956,5.2956,5.3064,5.3065,5.3066]}]]